Location: Liberec
(50.7830°N, 15.0500°E)
Time: 20:39:34
(UTC+02:00)

ISS - Visible Passes

Search period start: 16 July 2018 00:00
Search period end: 26 July 2018 00:00
Orbit: 402 x 408 km, 51.6° (Epoch: 17 July)

Date Brightness Start Highest point End Pass type
(mag) Time Alt. Az. Time Alt. Az. Time Alt. Az.
16 Jul -3.1 00:59:18 37° ESE 00:59:18 37° ESE 01:01:43 10° E visible
16 Jul -3.7 02:31:56 12° W 02:34:58 77° N 02:38:16 10° E visible
16 Jul -3.8 04:08:13 10° WNW 04:11:32 86° SSW 04:14:51 10° ESE visible
17 Jul -1.8 00:08:35 16° E 00:08:35 16° E 00:09:32 10° E visible
17 Jul -3.9 01:41:12 27° WSW 01:42:51 89° NNW 01:46:10 10° ENE visible
17 Jul -3.7 03:16:08 10° W 03:19:27 80° N 03:22:45 10° E visible
18 Jul -4.0 00:50:12 55° SW 00:50:46 73° SSE 00:54:04 10° ENE visible
18 Jul -3.7 02:24:02 10° W 02:27:20 74° N 02:30:38 10° E visible
18 Jul -3.8 04:00:34 10° WNW 04:03:49 58° SSW 04:07:04 10° ESE visible
18 Jul -3.8 23:58:10 46° SSW 23:58:43 53° SSE 00:01:56 10° E visible
19 Jul -3.7 01:31:53 10° W 01:35:11 75° N 01:38:30 10° E visible
19 Jul -3.9 03:08:27 10° WNW 03:11:45 79° SSW 03:15:03 10° ESE visible
19 Jul -3.3 23:03:39 10° SW 23:06:42 36° SSE 23:09:45 10° E visible
20 Jul -3.8 00:39:45 10° W 00:43:03 83° N 00:46:20 10° E visible
20 Jul -3.8 02:16:19 10° W 02:19:38 85° NNE 02:22:56 10° E visible
20 Jul -3.2 03:52:55 10° W 03:55:58 35° SSW 03:59:00 10° SE visible
20 Jul -2.7 22:12:01 10° SSW 22:14:43 24° SE 22:17:26 10° E visible
20 Jul -4.0 23:47:37 10° WSW 23:50:55 81° SSE 23:54:12 10° ENE visible
21 Jul -3.7 01:24:11 10° W 01:27:28 76° N 01:30:47 10° E visible
21 Jul -3.7 03:00:43 10° W 03:03:56 51° SSW 03:07:08 10° SE visible
21 Jul -3.9 22:55:34 10° WSW 22:58:48 60° SSE 23:02:03 10° ENE visible
22 Jul -3.7 00:32:00 10° W 00:35:17 74° N 00:38:35 10° E visible
22 Jul -4.0 02:08:33 10° WNW 02:11:50 71° SSW 02:15:07 10° ESE visible
22 Jul -2.5 03:45:28 10° W 03:47:57 20° SW 03:50:25 10° SSE visible
22 Jul -3.4 22:03:36 10° SW 22:06:44 41° SSE 22:09:51 10° E visible
22 Jul -3.8 23:39:49 10° W 23:43:07 80° N 23:46:24 10° E visible
23 Jul -3.9 01:16:23 10° WNW 01:19:41 90° NW 01:20:44 40° ESE visible
23 Jul -1.3 02:53:02 10° W 02:53:14 11° W 02:53:14 11° W visible
23 Jul -3.9 22:47:39 10° WSW 22:50:56 87° SSE 22:54:14 10° ENE visible
24 Jul -3.8 00:24:13 10° W 00:27:31 78° N 00:29:02 29° E visible
24 Jul -1.7 02:00:45 10° W 02:01:37 16° W 02:01:37 16° W visible
24 Jul -3.9 21:55:31 10° WSW 21:58:46 68° SSE 22:02:02 10° ENE visible
24 Jul -3.7 23:32:00 10° W 23:35:17 74° N 23:38:00 14° E visible
25 Jul -2.8 01:08:32 10° WNW 01:10:37 35° W 01:10:37 35° W visible
25 Jul -3.7 22:39:47 10° W 22:43:04 77° N 22:46:21 10° E visible
